Back to catalog

STARLINK-37188

AliveCommunicationsSSO
NORAD 68404·PAYLOAD·🇺🇸 United States

Launched Mar 26, 2026 from Vandenberg Space Force Base

Loading…

Next Passes (next 24 hours)

TLE

FreshSource: CelesTrak SupGP

Epoch: Sep 14, 2026, 15:57 UTC

1 68404C 26063AA  26257.66506944  .00022106  00000+0  68648-3 0  2573
2 68404  97.2855  38.6836 0001045  90.3908 106.9315 15.33415624    13

Track STARLINK-37188 in real time with AllMySat

Download on the App Store